Weather History for KDEC - May, 2013

Change the Weather History Date:

Thursday, May 16, 2013

  Actual Average Record
Temperature  
Mean Temperature 70 °F 63 °F  
Max Temperature 80 °F 74 °F 100 °F (1998)
Min Temperature 60 °F 51 °F 33 °F (1997)
Degree Days  
Heating Degree Days 0 5  
Month to date heating degree days 73 93  
Since 1 July heating degree days 5362 5456  
Cooling Degree Days 5 2  
Month to date cooling degree days 26 22  
Year to date cooling degree days 36 36  
Growing Degree Days 22 (Base 50)    
Moisture  
Dew Point 61 °F    
Average Humidity 69    
Maximum Humidity 90    
Minimum Humidity 48    
Precipitation  
Precipitation 0.11 in 0.14 in 0.63 in (2002)
Month to date precipitation 2.52 2.39  
Year to date precipitation 14.20 12.55  
Sea Level Pressure  
Sea Level Pressure 29.90 in    
Wind  
Wind Speed 7 mph (WSW)    
Max Wind Speed 20 mph    
Max Gust Speed 25 mph    
Visibility 10 miles    
Events Rain    
T = Trace of Precipitation, MM = Missing Value Source: NWS Daily Summary

Daily Weather History Graph

Daily Weather History Graph

Search for Another Location

Airport or City:

Trip Planner

Search our weather history database for the weather conditions in past years. The results will help you decide how hot, cold, wet, or windy it might be!

Date:

Astronomy

May. 16, 2013 Rise Set
Actual Time 5:39 AM CDT 8:04 PM CDT
Civil Twilight 5:08 AM CDT 8:35 PM CDT
Nautical Twilight 4:30 AM CDT 9:13 PM CDT
Astronomical Twilight 3:48 AM CDT 9:55 PM CDT
Moon 11:12 AM CDT (5/16) 12:25 AM CDT (5/16)
Length of Visible Light 15h 26m
Length of Day
14h 25m
Waxing Crescent, 36% of the Moon is Illuminated
May 16
Waxing Crescent
May 17
First Quarter
May 24
Full
May 31
Last Quarter
Jun 8
New

Hourly Weather History & Observations

Time (CDT) Temp. Dew Point Humidity Pressure Visibility Wind Dir Wind Speed Gust Speed Precip Events Conditions
12:54 AM 73.0 °F 66.0 °F 79% 29.81 in 10.0 mi WSW 13.8 mph - N/A   Clear
1:54 AM 72.0 °F 64.0 °F 76% 29.84 in 10.0 mi West 6.9 mph - N/A   Clear
2:54 AM 71.1 °F 64.0 °F 78% 29.85 in 10.0 mi West 10.4 mph - N/A   Clear
3:54 AM 68.0 °F 64.0 °F 87% 29.84 in 10.0 mi NNW 6.9 mph - N/A   Clear
4:54 AM 66.9 °F 55.0 °F 66% 29.86 in 10.0 mi North 5.8 mph - N/A   Clear
5:54 AM 66.0 °F 54.0 °F 65% 29.87 in 10.0 mi NW 3.5 mph - N/A   Clear
6:54 AM 66.9 °F 57.9 °F 73% 29.89 in 10.0 mi WNW 3.5 mph - N/A   Mostly Cloudy
7:54 AM 70.0 °F 57.9 °F 65% 29.91 in 10.0 mi West 3.5 mph - N/A   Partly Cloudy
8:54 AM 72.0 °F 57.9 °F 61% 29.93 in 10.0 mi West 5.8 mph - N/A   Mostly Cloudy
9:25 AM 66.2 °F 57.2 °F 73% 29.95 in 3.0 mi Calm Calm - 0.07 in Rain Light Rain
9:32 AM 66.2 °F 57.2 °F 73% 29.95 in 9.0 mi NE 3.5 mph - 0.08 in Rain Light Rain
9:54 AM 64.9 °F 62.1 °F 90% 29.92 in 10.0 mi NNE 6.9 mph - 0.11 in Rain Light Rain
10:54 AM 72.0 °F 62.1 °F 71% 29.93 in 10.0 mi Calm Calm - 0.00 in   Clear
11:54 AM 75.9 °F 59.0 °F 56% 29.93 in 10.0 mi South 5.8 mph - N/A   Mostly Cloudy
12:54 PM 78.1 °F 61.0 °F 56% 29.93 in 10.0 mi ESE 3.5 mph - N/A   Overcast
1:54 PM 79.0 °F 66.0 °F 64% 29.92 in 10.0 mi SW 17.3 mph 21.9 mph N/A   Scattered Clouds
2:54 PM 78.1 °F 63.0 °F 60% 29.90 in 10.0 mi SW 11.5 mph - N/A   Clear
3:54 PM 79.0 °F 61.0 °F 54% 29.88 in 10.0 mi South 4.6 mph - N/A   Clear
5:54 PM 77.0 °F 64.0 °F 64% 29.88 in 10.0 mi SSW 13.8 mph - N/A   Clear
6:54 PM 75.9 °F 62.1 °F 62% 29.89 in 10.0 mi SW 12.7 mph - N/A   Clear
7:54 PM 73.9 °F 60.1 °F 62% 29.89 in 10.0 mi SSW 9.2 mph - N/A   Clear
8:54 PM 70.0 °F 61.0 °F 73% 29.90 in 10.0 mi SSW 8.1 mph - N/A   Scattered Clouds
9:54 PM 69.1 °F 59.0 °F 70% 29.94 in 10.0 mi South 8.1 mph - N/A   Clear
10:54 PM 64.0 °F 60.1 °F 87% 29.95 in 10.0 mi Calm Calm - N/A   Clear
11:54 PM 60.1 °F 57.9 °F 93% 29.96 in 10.0 mi East 3.5 mph - N/A   Clear